Regional Weather Roundup
Issued by NWS

Home | Current Version | Previous Version | Text Only | Print | Product List | Glossary On
Versions: 1 2 3 4 5 6 7 8 9 10 11 12 13 14 15 16 17 18 19 20 21 22 23 24 25 26 27 28 29 30 31 32 33 34 35 36 37 38 39 40 41 42 43 44 45 46 47 48 49 50
000
ASUS42 KTBW 171110
RWRFL
FLORIDA REGIONAL WEATHER ROUNDUP
NATIONAL WEATHER SERVICE TAMPA BAY RUSKIN FL
700 AM EDT WED SEP 17 2014

NOTE: "FAIR" INDICATES FEW OR NO CLOUDS BELOW 12,000 FEET WITH NO
SIGNIFICANT WEATHER AND/OR OBSTRUCTIONS TO VISIBILITY.


FLZ001>010-012>015-112-114-115-171200-
PANHANDLE FLORIDA

CITY           SKY/WX    TMP DP  RH WIND       PRES   REMARKS
PENSACOLA      MOCLDY    70  70 100 W5        29.95R
PENSACOLA NAS  MOCLDY    71  71 100 CALM      29.95S
MILTON NAS     FOG       69  68  96 CALM      29.95S VSB 1/2
CRESTVIEW      PTCLDY    70  69  97 CALM      29.96R
DUKE FIELD     FAIR      70  70 100 W2        29.95R
VALPARAISO     MOCLDY    71  71  97 CALM      29.94S
MARY ESTHER    PTCLDY    71  67  86 N1        29.94R
PANAMA CITY    FAIR      71  68  90 CALM      29.94R
TYNDALL AFB    CLOUDY    73  73 100 NE3       29.94S
APALACHICOLA   MOCLDY    74  72  93 N7        29.94R

STATION/POSITION SKY/WX   TEMP    WIND        PRES    WAVE   SWELL
                          AIR SEA DIR/SP/G            HT/PER HT/PER
                          (F)     (DEG/KT/KT) (MB)    (FT/S) (FT/S)
30.1N   87.6W              78 85   10/ 10/ 10 1014.3R   2/ 7   2/ 7
29.2N   88.2W              82 85  360/  6/  8 1014.2S   2/ 5   2/ 5
28.8N   86.0W              82 85  250/  8/ 10 1013.2R   2/ 5   2/ 5
PANAMA CITY BEAC           72 85   30/  3/  5 1013.8R
CAPE SAN BLAS    NOT AVBL
TOWER C                    79      30/  9/ 11 1013.3R
28.5N   84.5W              81 85  250/ 12/ 14 1013.0S   3/ 5

$$
FLZ011-016>038-118-127-128-134-139-239-171200-
NORTH FLORIDA

CITY           SKY/WX    TMP DP  RH WIND       PRES   REMARKS
MARIANNA       FOG       70  70 100 CALM      29.94R VSB 1/2
TALLAHASSEE    MOCLDY    71  69  93 CALM      29.95R
PERRY          FOG       68  68 100 CALM      29.94R VSB 1
CROSS CITY       N/A     71  70  96 CALM      29.93R
LAKE CITY      CLOUDY    70  70 100 CALM      29.94R
GAINESVILLE    MOCLDY    71  70  96 CALM      29.93R
MAYPORT NAS    MOCLDY    74  71  91 VRB5      29.91R
JACKSONVILLE   FOG       71  71 100 W5        29.92R VSB 1/2
JAX NAS        MOCLDY    74  71  91 W6        29.92S
JAX CRAIG      MOCLDY    73  70  90 W5        29.91S
JAX CECIL      CLOUDY    72  72 100 W5        29.92F FOG
ST AUGUSTINE   CLOUDY    73  71  93 W6        29.92S

STATION/POSITION SKY/WX   TEMP    WIND        PRES    WAVE   SWELL
                          AIR SEA DIR/SP/G            HT/PER HT/PER
                          (F)     (DEG/KT/KT) (MB)    (FT/S) (FT/S)
SHELL POINT                73     350/  2/  4   N/A
KEATON BEACH               74     310/  2/  3 1013.6R
CEDAR KEY                  75      30/  3/  4 1013.9R
FERNANDINA                 72 84  270/  6/  8 1012.4R
30.7N   81.3W                 83                N/A     2/13   2/13
MAYPORT                    74 83  280/  8/  9   N/A
31.4N   80.9W              78 84  360/ 12/ 14 1012.5R   2/13   2/13
ST AUGUSTINE               73     280/  4/  6 1013.5S

$$
FLZ040-043>046-052-053-057-058-063-144-171200-
INTERIOR CENTRAL FLORIDA

CITY           SKY/WX    TMP DP  RH WIND       PRES   REMARKS
OCALA          CLEAR     70  70 100 CALM      29.93F
THE VILLAGES     N/A     73  73 100 CALM      29.85R FOG
LEESBURG       MOCLDY    75  73  93 SW3       29.96R
SANFORD        MOCLDY    76  73  91 SW6       29.94S
ORLANDO EXEC   MOCLDY    74  72  93 SW7       29.95R
ORLANDO INTL   CLOUDY    72  70  93 W3        29.95S
LAKELAND       HVY RAIN  72  72 100 W12       29.97R
BARTOW         MOCLDY    73 N/A N/A S5        29.97S
OKEECHOBEE       N/A     72  72 100 MISG        N/A

$$
FLZ041-047-054-059-064-141-147-171200-
EAST CENTRAL FLORIDA

CITY           SKY/WX    TMP DP  RH WIND       PRES   REMARKS
ORMOND BEACH   PTCLDY    72  72 100 SW6       29.93
DAYTONA BEACH  CLOUDY    73  72  96 SW5       29.93R
DELAND         PTSUNNY   73  72  94 SW3       29.95R
NEW SMYRNA BEA MOCLDY    73  72  94 W7        29.94
JFK SPACE CTR  MOCLDY    75  73  93 W7        29.93R
TITUSVILLE     MOCLDY    73  72  94 SW9       29.94
CAPE CANAVERAL MOCLDY    76  72  86 W8        29.93R
PATRICK AFB    PTCLDY    77  72  85 W12       29.93S
MELBOURNE      PTCLDY    75  71  87 SW5       29.94R
VERO BEACH     MOCLDY    73  70  90 W3        29.94S
FT PIERCE      PTCLDY    73  70  90 CALM      29.95R
STUART         PTCLDY    73  72  94 CALM      29.96R

STATION/POSITION SKY/WX   TEMP    WIND        PRES    WAVE   SWELL
                          AIR SEA DIR/SP/G            HT/PER HT/PER
                          (F)     (DEG/KT/KT) (MB)    (FT/S) (FT/S)
28.5N   80.2W              79 85  260/ 14/ 16 1013.2F
28.9N   78.5W              80 85  210/ 12/ 16 1013.1R   3/12   2/12
TRIDENT PIER               77 85  240/  7/ 10 1013.1R
28.4N   80.5W                 84                N/A     1/13
27.6N   80.2W                 83                N/A     2/13   2/13

$$
FLZ050-056-061-142-242-148-248-149-249-151-251-155-255-
160-260-171200-
WEST CENTRAL FLORIDA

CITY           SKY/WX    TMP DP  RH WIND       PRES   REMARKS
CRYSTAL RIVER  FAIR      72  70  94 CALM      29.93S
INVERNESS      FAIR      72  63  73 CALM      29.95R
BROOKSVILLE    MOCLDY    73  72  96 SE3       29.96R
ZEPHYRHILLS    CLOUDY    64  64 100 SW8       29.97R
CLEARWATER     MOCLDY    75  73  93 SW7       29.94S
TAMPA INTL     CLOUDY    75  72  90 S5        29.95S
TAMPA EXEC     RAIN      73  72  94 CALM      29.96S
PLANT CITY     LGT RAIN  73 N/A N/A CALM      29.99R
MACDILL AFB    CLOUDY    74  74 100 W10       29.95F
ST PETERSBURG  LGT RAIN  76  72  87 SW7       29.93F
SARASOTA       RAIN      74  72  93 NW14      29.95R
VENICE           N/A    N/A N/A N/A MISG        N/A

STATION/POSITION SKY/WX   TEMP    WIND        PRES    WAVE   SWELL
                          AIR SEA DIR/SP/G            HT/PER HT/PER
                          (F)     (DEG/KT/KT) (MB)    (FT/S) (FT/S)
CEDAR KEY                  75      30/  3/  4 1013.9R
28.5N   84.5W              81 85  250/ 12/ 14 1013.0S   3/ 5
27.3N   84.3W                 85                N/A     3/ 4
CLEARWATER BEACH NOT AVBL
MIDDLE TAMPA BAY           76     270/ 14/ 17 1014.7R
VENICE                     82 86  240/ 10/ 11 1014.2R

$$
FLZ066-069-070-075>078-162-262-165-265-171200-
SOUTHWEST FLORIDA AND KEYS

CITY           SKY/WX    TMP DP  RH WIND       PRES   REMARKS
PUNTA GORDA    CLOUDY    76  74  93 CALM      29.98R
FT MYERS       CLOUDY    75  73  93 CALM      29.96R
SOUTHWEST INTL CLOUDY    76  70  82 CALM      29.96R
NAPLES         CLOUDY    78  73  84 N3        29.96R
MARCO ISLAND   PTSUNNY   73  72  94 CALM      29.96R
MARATHON       CLEAR     77  76  96 CALM      29.95S
KEY WEST NAS   PTCLDY    80  75  84 CALM      29.96R
KEY WEST INTL  CLEAR    N/A N/A N/A CALM      29.96S

STATION/POSITION SKY/WX   TEMP    WIND        PRES    WAVE   SWELL
                          AIR SEA DIR/SP/G            HT/PER HT/PER
                          (F)     (DEG/KT/KT) (MB)    (FT/S) (FT/S)
VENICE                     82 86  240/ 10/ 11 1014.2R
NAPLES                     79 89   20/  2/  2 1015.0R
DRY TORTUGAS               83      CALM  /  1 1014.4S
NW FL BAY                  80      30/  7/  8 1014.4R
SAND KEY                   81      CALM  /  1 1014.5R
SOMBRERO KEY               81     330/  2/  2 1015.2R
LONG KEY                   81 84  280/  2/  3 1015.2R
MOLASSES REEF              81 85   CALM  /  1 1014.4R

$$
FLZ067-068-071>074-168-172>174-171200-
SOUTHEAST FLORIDA

CITY           SKY/WX    TMP DP  RH WIND       PRES   REMARKS
W PALM BEACH   PTCLDY    75  73  93 CALM      29.94R
FT LAUDER-EXEC CLEAR     75  74  96 CALM      29.95R
FT LAUDERDALE  PTCLDY    78  73  84 W5        29.95R
POMPANO BEACH  CLEAR     76  71  85 W3        29.95R
PEMBROKE PINES CLEAR     76  73  91 CALM      29.97R
OPA LOCKA      CLEAR     75  72  90 CALM      29.96R
MIAMI          PTCLDY    77  74  90 CALM      29.96R
WEST KENDALL   CLEAR     76  74  93 CALM      29.96R
HOMESTEAD      CLEAR     74  73  93 CALM      29.96R

STATION/POSITION SKY/WX   TEMP    WIND        PRES    WAVE   SWELL
                          AIR SEA DIR/SP/G            HT/PER HT/PER
                          (F)     (DEG/KT/KT) (MB)    (FT/S) (FT/S)
PORT EVERGLADES            77     250/  2/  4 1014.1
VIRGINIA KEY               80 85  310/  2/  4   N/A
LAKE WORTH                 77 85  290/  3/  4 1013.7S
FOWEY ROCKS                81 85  260/  4/  5 1014.7R
SETTLEMENT POINT           81     300/  4/  6 1014.8R

$$



USA.gov is the U.S. government's official web portal to all federal, state and local government web resources and services.